Home > Weather > Granby > Past weeks

Flag for Canada Weather for the Past 2 Weeks in Granby, Quebec, Canada

Now
41 °F

Quite cool.


Feels Like: 37 °F
Forecast: 41 / 48 °F
Wind: 6 mph from Southeast

Location: Frelighsburg

Current Time: May 2, 2016 at 4:39:51 AM

Latest Report: May 2, 2016 at 4:00 AM


Visibility: N/A

Pressure: 30.01 "Hg

Humidity: 95%

Dew Point: 39 °F

Location of GranbyLocation

Historic Weather in Granby — Graph

°F

Granby Temperature Yesterday

Maximum temperature yesterday: 52 °F (at 9:00 AM)
Minimum temperature yesterday: 42 °F (at 11:00 PM)
Average temperature yesterday: 47 °F

High & Low Weather Summary for the Past Weeks

 TemperatureHumidityPressure
High69 °F (Apr 21, 5:00 PM)100% (Apr 18, 9:00 PM)30.44 "Hg (Apr 18, 9:00 PM)
Low26 °F (Apr 28, 6:00 AM)11% (Apr 21, 1:00 PM)29.77 "Hg (Apr 22, 2:00 PM)
Average43 °F49%30.08 "Hg
* Reported Apr 17 3:00 AM — May 2 3:00 AM, Granby, Weather by CustomWeather, © 2016

Note: Actual official high and low records may vary slightly from our data, if they occured in-between our weather recording intervals... More about our weather records

Advertising

Granby Weather History for the Previous 24 Hours

Scroll right to see more
 ConditionsComfort  
Time TempWeatherWind HumidityBarometerVisibility
3:00 AM
Mon, May 2
41 °FQuite cool.5 mph96%30.03 "HgN/A
2:00 AM41 °FQuite cool.5 mph96%30.03 "HgN/A
1:00 AM41 °FQuite cool.6 mph95%30.05 "HgN/A
12:00 AM41 °FQuite cool.6 mph94%30.06 "HgN/A
11:00 PM
Sun, May 1
42 °FQuite cool.7 mph93%30.08 "HgN/A
10:00 PM44 °FQuite cool.3 mph92%30.09 "HgN/A
9:00 PM45 °FCool.5 mph97%30.08 "HgN/A
8:00 PM46 °FCool.2 mph97%30.09 "HgN/A
7:00 PM46 °FCool.3 mph95%30.08 "HgN/A
6:00 PM47 °FCool.3 mph93%30.10 "HgN/A
5:00 PM47 °FCool.2 mph92%30.11 "HgN/A
4:00 PM48 °FCool.3 mph90%30.12 "HgN/A
3:00 PM47 °FCool.5 mph87%30.14 "HgN/A
2:00 PM47 °FCool.2 mph86%30.17 "HgN/A
1:00 PM45 °FQuite cool.2 mph84%30.19 "HgN/A
12:00 PM48 °FCool.2 mph61%30.19 "HgN/A
11:00 AM51 °FCool.3 mph43%30.18 "HgN/A
10:00 AM52 °FCool.3 mph33%30.16 "HgN/A
9:00 AM52 °FCool.2 mph28%30.14 "HgN/A
8:00 AM49 °FCool.2 mph30%30.15 "HgN/A
7:00 AM46 °FCool.1 mph27%30.16 "HgN/A
6:00 AM47 °FCool.2 mph25%30.16 "HgN/A
5:00 AM46 °FCool.3 mph25%30.16 "HgN/A
4:00 AM46 °FCool.3 mph25%30.16 "HgN/A
Weather by CustomWeather, © 2016

See weather overviewHow to use our weather pages